Location: Buch
(49.7331°N, 12.1098°E)
Time: 11:51:29
(UTC+00:00)

ISS - Visible Passes

Search period start: 21 September 2021 00:00
Search period end: 01 October 2021 00:00
Orbit: 419 x 423 km, 51.6° (Epoch: 21 September)

Date Brightness Start Highest point End Pass type
(mag) Time Alt. Az. Time Alt. Az. Time Alt. Az.
21 Sep -3.7 18:08:48 10° WSW 18:12:08 65° SSE 18:14:52 15° ENE visible
21 Sep -2.2 19:45:42 10° W 19:47:52 35° WNW 19:47:52 35° WNW visible
22 Sep -3.5 18:58:44 10° W 19:02:06 66° N 19:02:48 49° NE visible
22 Sep -0.3 20:35:46 10° WNW 20:35:48 10° WNW 20:35:48 10° WNW visible
23 Sep -3.7 18:11:48 10° W 18:15:10 77° NNW 18:17:41 17° ENE visible
23 Sep -1.8 19:48:50 10° WNW 19:50:41 29° WNW 19:50:41 29° WNW visible
24 Sep -3.5 19:01:54 10° W 19:05:14 60° N 19:05:32 57° NNE visible
25 Sep -3.4 18:14:55 10° W 18:18:16 61° N 18:20:22 21° ENE visible
25 Sep -1.4 19:51:53 10° WNW 19:53:21 24° WNW 19:53:21 24° WNW visible
26 Sep -3.5 17:27:57 10° W 17:31:19 65° N 17:34:41 10° ENE visible
26 Sep -3.6 19:04:58 10° WNW 19:08:10 70° NNW 19:08:10 70° NNW visible
27 Sep -3.6 18:18:01 10° WNW 18:21:24 64° N 18:22:59 28° E visible
27 Sep -1.0 19:54:56 10° WNW 19:55:58 18° W 19:55:58 18° W visible
28 Sep -3.4 17:31:03 10° W 17:34:25 60° N 17:37:46 10° E visible
28 Sep -3.2 19:07:59 10° WNW 19:10:48 56° W 19:10:48 56° W visible
29 Sep -3.8 18:21:02 10° WNW 18:24:26 89° NNE 18:25:39 37° ESE visible
29 Sep -0.6 19:58:10 10° W 19:58:39 13° W 19:58:39 13° W visible
30 Sep -3.7 17:34:06 10° WNW 17:37:29 74° NNE 17:40:32 12° E visible
30 Sep -2.3 19:11:04 10° W 19:13:32 32° WSW 19:13:32 32° WSW visible
